GW0280 Weather Reports


time (UTC)temp
C
wind
direction
speed
KPH
gust
KPH
rain 1hr
cm
rain 24hr
cm
rain mn
cm
humidity
%
barometer
mb
20260507040047 17 133 0.0 3.2 0.00 0.10 0.00 90 1009.4
20260507034544 17 0 0.0 0.0 0.00 0.10 0.10 89 1008.9
20260507033055 17 0 0.0 3.2 0.00 0.10 0.10 90 1008.7
20260507031554 17 0 0.0 3.2 0.00 0.10 0.10 89 1008.9
20260507030100 17 133 0.0 4.8 0.00 0.10 0.10 90 1008.8
20260507024604 17 226 0.0 4.8 0.00 0.10 0.10 90 1008.9
20260507023041 17 226 0.0 1.6 0.00 0.10 0.10 90 1008.8
20260507021551 17 0 0.0 1.6 0.00 0.10 0.10 90 1009.0
20260507020054 17 0 0.0 1.6 0.00 0.10 0.10 90 1009.2
20260507014551 17 0 0.0 1.6 0.00 0.10 0.10 91 1009.7
20260507013042 17 0 0.0 1.6 0.00 0.10 0.10 90 1009.8
20260507011544 17 0 0.0 0.0 0.00 0.10 0.10 88 1009.5
20260507010046 17 0 0.0 1.6 0.00 0.10 0.10 86 1009.3
20260507004543 18 226 0.0 0.0 0.00 0.10 0.10 85 1009.4
20260507003043 18 226 0.0 3.2 0.00 0.10 0.10 85 1009.4
20260507001546 18 226 1.6 6.4 0.00 0.10 0.10 84 1009.4
20260507000045 18 169 3.2 11.3 0.00 0.10 0.10 83 1009.0
20260506234553 19 0 3.2 11.3 0.00 0.10 0.10 82 1008.9
20260506233049 19 161 3.2 16.1 0.00 0.10 0.10 82 1009.0
20260506231552 20 195 4.8 14.5 0.00 0.10 0.10 81 1009.0
20260506230040 20 228 6.4 16.1 0.00 0.10 0.10 81 1009.0
20260506224541 20 188 6.4 14.5 0.00 0.10 0.10 80 1008.9
20260506223044 20 169 4.8 14.5 0.00 0.10 0.10 80 1009.0
20260506221545 20 203 9.7 27.4 0.00 0.10 0.10 80 1008.8
20260506220043 20 188 8.0 24.1 0.00 0.10 0.10 80 1009.0
20260506214545 20 221 11.3 30.6 0.00 0.10 0.10 79 1008.8
20260506213040 20 190 11.3 25.7 0.00 0.10 0.10 79 1008.7
20260506211550 20 210 12.9 29.0 0.00 0.10 0.10 78 1008.6
20260506210045 20 127 14.5 45.1 0.00 0.10 0.10 79 1008.3
20260506204544 20 208 9.7 27.4 0.00 0.10 0.10 79 1008.3
20260506203042 20 188 12.9 33.8 0.00 0.10 0.10 79 1008.2
20260506201541 20 186 14.5 33.8 0.00 0.10 0.10 79 1008.0
20260506200046 20 219 12.9 30.6 0.00 0.10 0.10 79 1008.2
20260506194544 20 194 12.9 33.8 0.00 0.10 0.10 79 1008.5
20260506193044 20 137 14.5 32.2 0.00 0.10 0.10 79 1008.7
20260506191542 20 213 12.9 30.6 0.00 0.10 0.10 79 1008.5
20260506190042 20 211 16.1 30.6 0.00 0.10 0.10 78 1008.9
20260506184547 20 240 14.5 37.0 0.00 0.10 0.10 78 1008.9
20260506183048 20 185 19.3 38.6 0.00 0.10 0.10 79 1009.3
20260506181543 19 213 14.5 41.8 0.00 0.10 0.10 82 1009.4
20260506180046 18 211 12.9 41.8 0.00 0.10 0.10 82 1009.4
20260506174542 18 206 14.5 27.4 0.00 0.10 0.10 82 1009.7
20260506173113 18 161 12.9 32.2 0.00 0.10 0.10 84 1009.5
20260506171539 18 185 11.3 35.4 0.00 0.10 0.10 86 1009.5
20260506170046 18 214 11.3 27.4 0.03 0.10 0.10 88 1009.4
20260506164548 17 222 12.9 27.4 0.03 0.10 0.10 88 1009.6
20260506163043 17 188 8.0 22.5 0.08 0.10 0.10 89 1010.0
20260506161542 17 182 3.2 16.1 0.10 0.10 0.10 90 1010.1
20260506160049 17 200 4.8 22.5 0.08 0.08 0.08 89 1010.3
20260506154545 17 182 4.8 25.7 0.08 0.08 0.08 88 1010.9
20260506153047 17 207 11.3 22.5 0.03 0.03 0.03 85 1011.2
20260506151545 18 123 9.7 25.7 0.00 0.00 0.00 81 1011.1
20260506150044 18 205 8.0 24.1 0.00 0.00 0.00 79 1011.0
20260506144544 18 147 12.9 25.7 0.00 0.00 0.00 75 1011.1
20260506143037 20 182 11.3 35.4 0.00 0.00 0.00 70 1011.1
20260506141543 20 184 16.1 33.8 0.00 0.00 0.00 68 1011.1
20260506140043 20 171 12.9 35.4 0.00 0.00 0.00 67 1011.0
20260506134542 20 168 11.3 30.6 0.00 0.00 0.00 68 1010.9
20260506133041 20 215 11.3 32.2 0.00 0.00 0.00 69 1010.7
20260506131548 19 163 8.0 32.2 0.00 0.00 0.00 69 1010.8
20260506130052 19 183 9.7 25.7 0.00 0.00 0.00 69 1010.7
20260506124552 19 174 9.7 29.0 0.00 0.00 0.00 69 1010.9
20260506123043 19 208 9.7 20.9 0.00 0.00 0.00 71 1011.0
20260506121542 19 207 9.7 25.7 0.00 0.00 0.00 71 1011.1
20260506120040 18 183 12.9 30.6 0.00 0.00 0.00 72 1011.2
20260506114546 18 193 6.4 25.7 0.00 0.00 0.00 74 1011.0
20260506113052 17 156 8.0 19.3 0.00 0.00 0.00 75 1010.8
20260506111544 17 215 9.7 25.7 0.00 0.00 0.00 75 1010.8
20260506110051 17 203 6.4 16.1 0.00 0.00 0.00 77 1010.7
20260506104548 17 171 9.7 24.1 0.00 0.00 0.00 78 1010.8
20260506103047 17 95 4.8 20.9 0.00 0.00 0.00 79 1010.7
20260506101555 17 237 6.4 19.3 0.00 0.00 0.00 79 1011.0
20260506100101 17 213 8.0 25.7 0.00 0.00 0.00 79 1010.9
20260506094543 17 207 9.7 22.5 0.00 0.00 0.00 79 1010.8
20260506093046 17 164 9.7 29.0 0.00 0.00 0.00 78 1010.9
20260506091540 17 170 8.0 24.1 0.00 0.00 0.00 78 1010.7
20260506090045 17 207 6.4 17.7 0.00 0.00 0.00 78 1010.7
20260506084605 17 195 8.0 29.0 0.00 0.00 0.00 78 1010.7
20260506083044 17 218 8.0 22.5 0.00 0.00 0.00 78 1010.5
20260506081550 17 221 8.0 24.1 0.00 0.00 0.00 78 1010.8
20260506073048 18 165 8.0 19.3 0.00 0.00 0.00 77 1010.9
20260506071545 18 179 9.7 20.9 0.00 0.00 0.00 77 1011.1
20260506061539 18 200 8.0 27.4 0.00 0.00 0.00 77 1011.0
20260506044618 20 197 8.0 24.1 0.00 0.00 0.00 75 1011.3
20260506043046 20 232 9.7 20.9 0.00 0.00 0.00 75 1011.5
20260506041553 20 159 8.0 24.1 0.00 0.00 0.00 75 1011.7